Simultaneous Nadir Overpasses (SNOs) Predictions

Prediction of SNOs between NOAA-20 and METOP-C Satellite Orbit:

Table of predicted SNOs for the next 14.0 days since TLE Epoch: 3/5/2022
Index Date (NOAA-20) Time (NOAA-20) Lat,Lon (NOAA-20) SZA (NOAA-20 ) Date (METOP-C) Time (METOP-C) Lat,Lon (METOP-C) SZA (METOP-C ) Distance(km) Time Diff (sec)
1 03/14/2022 07:05:18 73.39, 64.09 76.18 03/14/2022 07:06:24 73.35, 66.84 75.97 87.90 66
2 03/14/2022 07:56:01 -73.33,-128.45 103.92 03/14/2022 07:57:08 -73.27,-125.99 104.12 78.81 67
3 03/14/2022 08:46:42 73.10, 39.38 75.81 03/14/2022 08:47:52 73.02, 40.80 75.65 46.71 70
4 03/14/2022 09:37:25 -73.03,-153.17 104.28 03/14/2022 09:38:36 -72.95,-152.03 104.43 38.03 71
5 03/14/2022 10:28:06 72.79, 14.65 75.45 03/14/2022 10:29:19 72.75, 14.88 75.38 9.15 73
6 03/14/2022 11:18:49 -72.73,-177.91 104.64 03/14/2022 11:20:02 -72.73,-177.83 104.66 2.33 73
7 03/14/2022 12:09:34 72.69, -10.52 75.32 03/14/2022 12:10:42 72.68, -10.60 75.29 3.21 68
8 03/14/2022 13:00:19 -72.73, 156.72 104.66 03/14/2022 13:01:24 -72.71, 156.78 104.70 3.26 65
9 03/14/2022 13:51:04 72.70, -35.90 75.29 03/14/2022 13:52:03 72.71, -35.88 75.29 1.72 59
10 03/14/2022 14:41:48 -72.68, 131.44 104.74 03/14/2022 14:42:46 -72.69, 131.40 104.75 1.60 58
11 03/14/2022 15:32:34 72.70, -61.27 75.26 03/14/2022 15:33:25 72.69, -61.26 75.24 0.90 51
12 03/14/2022 16:23:18 -72.68, 106.07 104.77 03/14/2022 16:24:08 -72.67, 106.02 104.79 2.21 50
13 03/14/2022 17:14:04 72.70, -86.65 75.24 03/14/2022 17:14:47 72.67, -86.64 75.20 3.21 43
14 03/14/2022 18:04:48 -72.69, 80.69 104.80 03/14/2022 18:05:29 -72.70, 80.74 104.79 2.43 41
15 03/14/2022 18:55:33 72.65,-111.93 75.15 03/14/2022 18:56:09 72.65,-112.02 75.15 3.25 36
16 03/14/2022 19:46:18 -72.69, 55.31 104.82 03/14/2022 19:46:51 -72.68, 55.36 104.84 1.85 33
17 03/14/2022 20:37:02 72.65,-137.30 75.13 03/14/2022 20:37:29 72.68,-137.30 75.15 3.29 27
18 03/14/2022 21:27:46 -72.64, 30.04 104.91 03/14/2022 21:28:12 -72.66, 29.98 104.89 3.09 26
19 03/14/2022 22:18:32 72.65,-162.68 75.10 03/14/2022 22:18:51 72.66,-162.68 75.10 0.88 19
20 03/14/2022 23:09:16 -72.64, 4.66 104.93 03/14/2022 23:09:34 -72.64, 4.60 104.93 2.02 18
21 03/15/2022 00:00:02 72.65, 171.94 75.08 03/15/2022 00:00:13 72.64, 171.94 75.06 1.54 11
22 03/15/2022 00:50:46 -72.64, -20.72 104.96 03/15/2022 00:50:56 -72.62, -20.78 104.98 3.21 10
23 03/15/2022 01:41:32 72.66, 146.56 75.05 03/15/2022 01:41:34 72.67, 146.66 75.06 3.62 2
24 03/15/2022 02:32:16 -72.64, -46.09 104.98 03/15/2022 02:32:17 -72.65, -46.06 104.98 1.45 1
25 03/15/2022 03:23:02 72.66, 121.19 75.02 03/15/2022 03:22:56 72.65, 121.28 75.01 3.15 6
26 03/15/2022 04:13:46 -72.64, -71.47 105.01 03/15/2022 04:13:39 -72.63, -71.44 105.03 1.89 7
27 03/15/2022 05:04:31 72.61, 95.91 74.94 03/15/2022 05:04:18 72.63, 95.90 74.97 2.58 13
28 03/15/2022 05:55:15 -72.59, -96.75 105.09 03/15/2022 05:55:01 -72.61, -96.82 105.07 3.00 14
29 03/15/2022 06:46:01 72.61, 70.53 74.91 03/15/2022 06:45:40 72.61, 70.52 74.92 0.62 21
30 03/15/2022 07:36:45 -72.60,-122.12 105.12 03/15/2022 07:36:23 -72.59,-122.20 105.12 2.74 22
31 03/15/2022 08:27:31 72.61, 45.16 74.89 03/15/2022 08:27:02 72.59, 45.14 74.87 2.41 29
32 03/15/2022 09:18:15 -72.60,-147.50 105.15 03/15/2022 09:17:44 -72.62,-147.48 105.12 2.56 31
33 03/15/2022 10:09:01 72.61, 19.78 74.86 03/15/2022 10:08:23 72.62, 19.86 74.87 2.78 38
34 03/15/2022 10:59:45 -72.60,-172.88 105.17 03/15/2022 10:59:06 -72.60,-172.86 105.16 0.57 39
35 03/15/2022 11:50:31 72.61, -5.60 74.83 03/15/2022 11:49:45 72.60, -5.52 74.83 2.91 46
36 03/15/2022 12:41:15 -72.60, 161.74 105.20 03/15/2022 12:40:28 -72.58, 161.76 105.21 2.41 47
37 03/15/2022 13:32:00 72.56, -30.87 74.75 03/15/2022 13:31:07 72.58, -30.90 74.78 2.05 53
38 03/15/2022 14:22:44 -72.55, 136.47 105.28 03/15/2022 14:21:50 -72.56, 136.38 105.26 3.21 54
39 03/15/2022 15:13:30 72.57, -56.25 74.73 03/15/2022 15:12:29 72.56, -56.28 74.74 1.33 61
40 03/15/2022 16:04:14 -72.55, 111.09 105.31 03/15/2022 16:03:12 -72.54, 111.00 105.30 3.57 62
41 03/15/2022 16:55:00 72.57, -81.63 74.70 03/15/2022 16:53:51 72.54, -81.67 74.69 3.33 69
42 03/15/2022 17:45:44 -72.55, 85.71 105.33 03/15/2022 17:44:33 -72.57, 85.72 105.30 1.67 71
43 03/15/2022 18:36:28 72.47,-106.80 74.56 03/15/2022 18:35:14 72.47,-107.15 74.60 11.69 74
44 03/15/2022 19:27:11 -72.40, 60.64 105.53 03/15/2022 19:25:58 -72.40, 60.03 105.48 20.58 73
45 03/15/2022 20:17:52 72.16,-131.57 74.20 03/15/2022 20:16:42 72.14,-133.13 74.29 53.14 70
46 03/15/2022 21:08:35 -72.10, 35.86 105.89 03/15/2022 21:07:25 -72.12, 34.15 105.75 58.44 70
47 03/15/2022 21:59:16 71.85,-156.36 73.84 03/15/2022 21:58:09 71.86,-158.99 74.02 91.06 67
48 03/15/2022 22:49:59 -71.79, 11.07 106.24 03/15/2022 22:48:53 -71.79, 8.20 106.06 99.67 66



Historial Predications of SNOs between NOAA-20 and METOP-C
